VLG8AZ LIRN-LEBL

Flight info

Callsign VLG8AZ
Flight time 1h 42m
Altitude 33000
Route EDOPA DCT TAGEL DCT BETOT/N0451F340 DCT VAVAX DCT EPIKU DCT GINOX DCT KIFMI/N0429F280 DCT ELVOP DCT MUREN DCT CHELY/N0443F290 M601 VERSO
Aircraft A321/M-SDE3FGHIRWY/LB1

Departure

Time 2026-05-05 14:47
Airport Naples International Airport (LIRN)

Arrival

Time 2026-05-05 16:29
Airport Josep Tarradellas Barcelona-El Prat Airport (LEBL)
Time Latitude Longitude Altitude Speed Heading
2026-05-05 14:11 40.87815 14.28040 296 ft 0 kts 140°
2026-05-05 14:36 40.87831 14.28023 300 ft 4 kts 141°
2026-05-05 14:36 40.87850 14.28000 301 ft 4 kts 122°
2026-05-05 14:36 40.87858 14.27968 298 ft 4 kts 84°
2026-05-05 14:37 40.87853 14.27945 301 ft 1 kts 52°
2026-05-05 14:37 40.87850 14.27940 301 ft 0 kts 52°
2026-05-05 14:40 40.87854 14.27948 302 ft 4 kts 52°
2026-05-05 14:40 40.87890 14.28008 297 ft 12 kts 52°
2026-05-05 14:40 40.87946 14.28100 297 ft 13 kts 50°
2026-05-05 14:40 40.87959 14.28198 293 ft 12 kts 97°
2026-05-05 14:41 40.87949 14.28291 290 ft 10 kts 98°
2026-05-05 14:41 40.87939 14.28390 292 ft 12 kts 98°
2026-05-05 14:41 40.87970 14.28491 286 ft 14 kts 40°
2026-05-05 14:41 40.88038 14.28594 284 ft 15 kts 52°
2026-05-05 14:42 40.88069 14.28647 282 ft 10 kts 52°
2026-05-05 14:42 40.88122 14.28736 280 ft 14 kts 52°
2026-05-05 14:42 40.88186 14.28846 277 ft 16 kts 52°
2026-05-05 14:42 40.88258 14.28975 274 ft 19 kts 53°
2026-05-05 14:43 40.88337 14.29113 271 ft 16 kts 52°
2026-05-05 14:43 40.88410 14.29237 268 ft 18 kts 52°
2026-05-05 14:43 40.88490 14.29375 264 ft 19 kts 52°
2026-05-05 14:43 40.88575 14.29522 260 ft 21 kts 52°
2026-05-05 14:44 40.88667 14.29680 255 ft 21 kts 52°
2026-05-05 14:44 40.88751 14.29825 251 ft 20 kts 53°
2026-05-05 14:44 40.88843 14.29986 245 ft 23 kts 53°
2026-05-05 14:44 40.88931 14.30138 240 ft 19 kts 52°
2026-05-05 14:45 40.89016 14.30286 236 ft 17 kts 54°
2026-05-05 14:45 40.89088 14.30409 229 ft 16 kts 48°
2026-05-05 14:45 40.89186 14.30428 226 ft 16 kts 328°
2026-05-05 14:45 40.89200 14.30337 230 ft 9 kts 236°
2026-05-05 14:46 40.89154 14.30245 232 ft 21 kts 238°
2026-05-05 14:46 40.89048 14.30015 240 ft 67 kts 239°
2026-05-05 14:46 40.88685 14.29246 263 ft 128 kts 238°
2026-05-05 14:46 40.88144 14.28081 516 ft 157 kts 240°
2026-05-05 14:47 40.87512 14.26933 1271 ft 154 kts 218°
2026-05-05 14:47 40.86470 14.26499 1644 ft 171 kts 177°
2026-05-05 14:47 40.85208 14.26675 1895 ft 193 kts 172°
2026-05-05 14:47 40.83871 14.26887 2566 ft 192 kts 172°
2026-05-05 14:48 40.82530 14.27090 3380 ft 197 kts 173°
2026-05-05 14:48 40.81145 14.27285 4176 ft 205 kts 175°
2026-05-05 14:48 40.79630 14.27499 4571 ft 238 kts 175°
2026-05-05 14:48 40.77959 14.27722 5423 ft 233 kts 176°
2026-05-05 14:49 40.76419 14.27925 6632 ft 216 kts 177°
2026-05-05 14:49 40.74935 14.28117 7382 ft 214 kts 178°
2026-05-05 14:49 40.73443 14.28306 8013 ft 217 kts 178°
2026-05-05 14:49 40.71929 14.28428 8649 ft 219 kts 189°
2026-05-05 14:50 40.70386 14.27841 8754 ft 249 kts 215°
2026-05-05 14:50 40.69017 14.26296 9121 ft 270 kts 224°
2026-05-05 14:50 40.67580 14.24599 9717 ft 283 kts 223°
2026-05-05 14:50 40.66074 14.22873 10391 ft 289 kts 223°
2026-05-05 14:51 40.64542 14.21139 10965 ft 292 kts 223°
2026-05-05 14:51 40.62996 14.19392 11568 ft 295 kts 223°
2026-05-05 14:51 40.61432 14.17626 12163 ft 298 kts 222°
2026-05-05 14:51 40.59850 14.15839 12723 ft 303 kts 222°
2026-05-05 14:52 40.58204 14.13974 12891 ft 322 kts 223°
2026-05-05 14:52 40.56462 14.11994 13031 ft 340 kts 222°
2026-05-05 14:52 40.54648 14.09931 13411 ft 348 kts 222°
2026-05-05 14:52 40.52803 14.07833 13953 ft 353 kts 222°
2026-05-05 14:53 40.51006 14.05612 14456 ft 355 kts 231°
2026-05-05 14:53 40.49701 14.02879 15007 ft 355 kts 248°
2026-05-05 14:53 40.48837 13.99889 15546 ft 357 kts 250°
2026-05-05 14:53 40.47975 13.96818 16057 ft 360 kts 250°
2026-05-05 14:54 40.47097 13.93681 16611 ft 362 kts 250°
2026-05-05 14:54 40.46236 13.90607 17142 ft 365 kts 250°
2026-05-05 14:54 40.45355 13.87476 17692 ft 367 kts 250°
2026-05-05 14:54 40.44462 13.84318 18238 ft 369 kts 249°
2026-05-05 14:55 40.43566 13.81162 18739 ft 371 kts 249°
2026-05-05 14:55 40.42661 13.77983 19207 ft 373 kts 249°
2026-05-05 14:55 40.41757 13.74786 19688 ft 374 kts 250°
2026-05-05 14:55 40.40869 13.71569 20174 ft 376 kts 250°
2026-05-05 14:56 40.39988 13.68323 20667 ft 378 kts 251°
2026-05-05 14:56 40.39106 13.65065 21148 ft 380 kts 251°
2026-05-05 14:56 40.38220 13.61798 21605 ft 382 kts 251°
2026-05-05 14:56 40.37326 13.58513 22054 ft 383 kts 251°
2026-05-05 14:57 40.36424 13.55219 22503 ft 385 kts 251°
2026-05-05 14:57 40.35510 13.51897 22942 ft 387 kts 251°
2026-05-05 14:57 40.34596 13.48574 23359 ft 389 kts 251°
2026-05-05 14:57 40.33674 13.45223 23709 ft 391 kts 251°
2026-05-05 14:58 40.32749 13.41860 24073 ft 393 kts 251°
2026-05-05 14:58 40.31820 13.38494 24430 ft 394 kts 251°
2026-05-05 14:58 40.30888 13.35122 24790 ft 395 kts 252°
2026-05-05 14:58 40.30186 13.31651 25127 ft 395 kts 261°
2026-05-05 14:59 40.29981 13.28074 25466 ft 396 kts 271°
2026-05-05 14:59 40.30178 13.24468 25800 ft 397 kts 274°
2026-05-05 14:59 40.30400 13.20857 26141 ft 398 kts 274°
2026-05-05 14:59 40.30615 13.17236 26474 ft 400 kts 273°
2026-05-05 15:00 40.30825 13.13605 26807 ft 401 kts 273°
2026-05-05 15:00 40.30964 13.11188 27045 ft 401 kts 273°
2026-05-05 15:00 40.31242 13.06309 27487 ft 403 kts 273°
2026-05-05 15:00 40.31449 13.02635 27795 ft 404 kts 273°
2026-05-05 15:01 40.31657 12.98966 28096 ft 406 kts 273°
2026-05-05 15:01 40.31863 12.95271 28387 ft 407 kts 273°
2026-05-05 15:01 40.32068 12.91565 28674 ft 409 kts 273°
2026-05-05 15:01 40.32279 12.87839 28959 ft 410 kts 273°
2026-05-05 15:02 40.32491 12.84115 29243 ft 412 kts 273°
2026-05-05 15:02 40.32704 12.80367 29531 ft 413 kts 273°
2026-05-05 15:02 40.32913 12.76606 29836 ft 415 kts 272°
2026-05-05 15:02 40.33118 12.72882 30134 ft 415 kts 272°
2026-05-05 15:03 40.33323 12.69109 30454 ft 414 kts 272°
2026-05-05 15:03 40.33530 12.65297 30805 ft 413 kts 272°
2026-05-05 15:03 40.33729 12.61599 31130 ft 412 kts 272°
2026-05-05 15:03 40.33932 12.57807 31460 ft 411 kts 272°
2026-05-05 15:04 40.34128 12.54083 31783 ft 410 kts 272°
2026-05-05 15:04 40.34323 12.50355 32099 ft 409 kts 273°
2026-05-05 15:04 40.34517 12.46638 32411 ft 408 kts 273°
2026-05-05 15:04 40.34709 12.42933 32723 ft 407 kts 273°
2026-05-05 15:05 40.35088 12.35598 33049 ft 402 kts 272°
2026-05-05 15:05 40.35276 12.31955 33048 ft 399 kts 272°
2026-05-05 15:06 40.35651 12.24722 33049 ft 397 kts 272°
2026-05-05 15:06 40.36013 12.17507 33046 ft 397 kts 272°
2026-05-05 15:07 40.36368 12.10276 33046 ft 397 kts 272°
2026-05-05 15:07 40.36715 12.03052 33056 ft 397 kts 272°
2026-05-05 15:08 40.37060 11.95838 33063 ft 396 kts 272°
2026-05-05 15:08 40.37407 11.88638 33059 ft 396 kts 272°
2026-05-05 15:09 40.37749 11.81442 33056 ft 395 kts 272°
2026-05-05 15:09 40.38089 11.74250 33048 ft 395 kts 272°
2026-05-05 15:10 40.38417 11.67069 33054 ft 395 kts 272°
2026-05-05 15:10 40.39040 11.59916 33051 ft 395 kts 278°
2026-05-05 15:11 40.40030 11.52824 33048 ft 395 kts 278°
2026-05-05 15:11 40.41011 11.45735 33045 ft 395 kts 278°
2026-05-05 15:12 40.41984 11.38648 33041 ft 395 kts 278°
2026-05-05 15:12 40.42952 11.31554 33039 ft 395 kts 278°
2026-05-05 15:13 40.43917 11.24463 33048 ft 394 kts 277°
2026-05-05 15:13 40.44873 11.17387 33044 ft 393 kts 277°
2026-05-05 15:14 40.45820 11.10312 33046 ft 393 kts 277°
2026-05-05 15:14 40.46768 11.03250 33040 ft 393 kts 277°
2026-05-05 15:15 40.47712 10.96181 33033 ft 393 kts 277°
2026-05-05 15:15 40.48650 10.89121 33031 ft 392 kts 277°
2026-05-05 15:16 40.49584 10.82059 33024 ft 392 kts 277°
2026-05-05 15:16 40.50515 10.75001 33022 ft 392 kts 277°
2026-05-05 15:17 40.51441 10.67945 33020 ft 392 kts 277°
2026-05-05 15:17 40.52365 10.60879 33018 ft 392 kts 277°
2026-05-05 15:18 40.53280 10.53809 33020 ft 392 kts 276°
2026-05-05 15:18 40.54192 10.46738 33017 ft 392 kts 276°
2026-05-05 15:19 40.55094 10.39715 33009 ft 392 kts 276°
2026-05-05 15:19 40.56001 10.32610 33008 ft 392 kts 276°
2026-05-05 15:20 40.56897 10.25577 33005 ft 392 kts 276°
2026-05-05 15:20 40.57797 10.18462 33013 ft 392 kts 276°
2026-05-05 15:21 40.58686 10.11430 33013 ft 392 kts 276°
2026-05-05 15:21 40.59582 10.04318 33007 ft 392 kts 276°
2026-05-05 15:22 40.60454 9.97290 33002 ft 391 kts 276°
2026-05-05 15:22 40.61330 9.90231 32997 ft 391 kts 276°
2026-05-05 15:23 40.62205 9.83167 33019 ft 391 kts 276°
2026-05-05 15:23 40.63072 9.76091 33007 ft 391 kts 275°
2026-05-05 15:24 40.63926 9.69025 33005 ft 391 kts 275°
2026-05-05 15:24 40.64781 9.61938 33000 ft 391 kts 275°
2026-05-05 15:25 40.65637 9.54871 32999 ft 391 kts 275°
2026-05-05 15:25 40.66592 9.47808 32993 ft 392 kts 277°
2026-05-05 15:26 40.67660 9.40751 32982 ft 393 kts 277°
2026-05-05 15:26 40.68721 9.33676 32976 ft 393 kts 277°
2026-05-05 15:27 40.69744 9.26593 32975 ft 394 kts 276°
2026-05-05 15:27 40.70747 9.19505 32977 ft 394 kts 276°
2026-05-05 15:28 40.71760 9.12388 32980 ft 394 kts 276°
2026-05-05 15:28 40.72773 9.05284 32985 ft 395 kts 276°
2026-05-05 15:29 40.73783 8.98179 32983 ft 395 kts 276°
2026-05-05 15:29 40.74783 8.91053 32978 ft 395 kts 276°
2026-05-05 15:30 40.75779 8.83927 32979 ft 395 kts 276°
2026-05-05 15:30 40.76774 8.76802 32976 ft 395 kts 276°
2026-05-05 15:31 40.77764 8.69690 33000 ft 395 kts 275°
2026-05-05 15:31 40.78582 8.63765 32996 ft 394 kts 275°
2026-05-05 15:32 40.79559 8.56657 32997 ft 393 kts 275°
2026-05-05 15:32 40.80524 8.49558 32986 ft 392 kts 275°
2026-05-05 15:33 40.81489 8.42478 32986 ft 393 kts 275°
2026-05-05 15:33 40.82457 8.35386 32971 ft 392 kts 275°
2026-05-05 15:34 40.83415 8.28294 32997 ft 392 kts 274°
2026-05-05 15:34 40.84367 8.21209 33005 ft 392 kts 274°
2026-05-05 15:35 40.85311 8.14113 32990 ft 392 kts 274°
2026-05-05 15:35 40.85967 8.05874 32983 ft 387 kts 268°
2026-05-05 15:36 40.86239 7.99930 32978 ft 387 kts 268°
2026-05-05 15:36 40.86675 7.92824 33004 ft 388 kts 270°
2026-05-05 15:37 40.87212 7.85724 32993 ft 388 kts 270°
2026-05-05 15:37 40.87723 7.78684 32987 ft 387 kts 270°
2026-05-05 15:38 40.88205 7.71567 32976 ft 386 kts 269°
2026-05-05 15:38 40.88671 7.64549 32971 ft 386 kts 269°
2026-05-05 15:39 40.89132 7.57471 32996 ft 386 kts 269°
2026-05-05 15:39 40.89598 7.50412 32993 ft 386 kts 269°
2026-05-05 15:40 40.90064 7.43334 32982 ft 386 kts 269°
2026-05-05 15:40 40.90526 7.36258 32966 ft 386 kts 269°
2026-05-05 15:41 40.90980 7.29209 32957 ft 386 kts 269°
2026-05-05 15:41 40.91428 7.22139 32957 ft 386 kts 269°
2026-05-05 15:42 40.91865 7.15057 32957 ft 386 kts 269°
2026-05-05 15:42 40.92304 7.07984 32954 ft 386 kts 269°
2026-05-05 15:43 40.92743 7.00957 32957 ft 386 kts 269°
2026-05-05 15:43 40.93175 6.93878 32950 ft 386 kts 269°
2026-05-05 15:44 40.93606 6.86813 32954 ft 386 kts 269°
2026-05-05 15:44 40.94018 6.79735 32960 ft 386 kts 268°
2026-05-05 15:45 40.94435 6.72649 32957 ft 386 kts 268°
2026-05-05 15:45 40.94853 6.65566 32953 ft 386 kts 268°
2026-05-05 15:46 40.95267 6.58481 32948 ft 386 kts 268°
2026-05-05 15:46 40.95669 6.51401 32946 ft 386 kts 268°
2026-05-05 15:47 40.96070 6.44307 32957 ft 386 kts 268°
2026-05-05 15:47 40.96461 6.37212 32941 ft 387 kts 268°
2026-05-05 15:48 40.96852 6.30112 32945 ft 387 kts 268°
2026-05-05 15:48 40.97237 6.23012 32938 ft 387 kts 268°
2026-05-05 15:49 40.97623 6.15911 32936 ft 387 kts 268°
2026-05-05 15:49 40.98009 6.08807 32960 ft 387 kts 268°
2026-05-05 15:50 40.98385 6.01701 32941 ft 387 kts 268°
2026-05-05 15:50 40.98762 5.94586 32935 ft 387 kts 268°
2026-05-05 15:51 40.99134 5.87474 32930 ft 387 kts 268°
2026-05-05 15:51 40.99503 5.80360 32929 ft 387 kts 268°
2026-05-05 15:52 40.99858 5.73252 32929 ft 387 kts 267°
2026-05-05 15:52 41.00206 5.66137 32945 ft 388 kts 267°
2026-05-05 15:53 41.00554 5.59023 32939 ft 387 kts 267°
2026-05-05 15:53 41.00900 5.51904 32935 ft 387 kts 267°
2026-05-05 15:54 41.01241 5.44782 32928 ft 387 kts 267°
2026-05-05 15:54 41.01577 5.37669 32926 ft 387 kts 267°
2026-05-05 15:55 41.01942 5.30553 32955 ft 388 kts 267°
2026-05-05 15:55 41.02325 5.23434 32948 ft 387 kts 267°
2026-05-05 15:56 41.02699 5.16386 32937 ft 386 kts 267°
2026-05-05 15:56 41.03059 5.09259 32931 ft 385 kts 267°
2026-05-05 15:57 41.03407 5.02176 32929 ft 385 kts 267°
2026-05-05 15:57 41.03751 4.95098 32961 ft 385 kts 267°
2026-05-05 15:58 41.04101 4.88077 32951 ft 384 kts 267°
2026-05-05 15:58 41.04456 4.81032 32941 ft 382 kts 266°
2026-05-05 15:59 41.04882 4.74005 32935 ft 384 kts 269°
2026-05-05 15:59 41.05619 4.66989 32912 ft 386 kts 271°
2026-05-05 16:00 41.06454 4.59923 32795 ft 389 kts 271°
2026-05-05 16:00 41.06865 4.56366 32089 ft 391 kts 271°
2026-05-05 16:00 41.07264 4.52806 31496 ft 390 kts 271°
2026-05-05 16:00 41.07653 4.49258 30964 ft 387 kts 270°
2026-05-05 16:01 41.08033 4.45742 30426 ft 384 kts 270°
2026-05-05 16:01 41.08405 4.42248 29902 ft 382 kts 270°
2026-05-05 16:01 41.08773 4.38780 29303 ft 379 kts 271°
2026-05-05 16:01 41.09136 4.35341 28730 ft 376 kts 271°
2026-05-05 16:02 41.09494 4.31921 28157 ft 372 kts 271°
2026-05-05 16:02 41.09849 4.28537 27607 ft 370 kts 271°
2026-05-05 16:02 41.10204 4.25174 27060 ft 367 kts 271°
2026-05-05 16:02 41.10557 4.21842 26525 ft 364 kts 271°
2026-05-05 16:03 41.10907 4.18517 25979 ft 363 kts 271°
2026-05-05 16:03 41.11252 4.15231 25565 ft 358 kts 271°
2026-05-05 16:03 41.11592 4.11972 25064 ft 355 kts 271°
2026-05-05 16:03 41.11930 4.08745 24626 ft 352 kts 271°
2026-05-05 16:04 41.12263 4.05539 24207 ft 349 kts 271°
2026-05-05 16:04 41.12591 4.02362 23782 ft 347 kts 271°
2026-05-05 16:04 41.12914 3.99201 23315 ft 346 kts 271°
2026-05-05 16:04 41.13236 3.96043 22839 ft 343 kts 272°
2026-05-05 16:05 41.13553 3.92928 22393 ft 340 kts 272°
2026-05-05 16:05 41.13868 3.89827 21950 ft 337 kts 272°
2026-05-05 16:05 41.14179 3.86770 21503 ft 334 kts 272°
2026-05-05 16:05 41.14488 3.83729 21061 ft 331 kts 272°
2026-05-05 16:06 41.14792 3.80718 20641 ft 328 kts 272°
2026-05-05 16:06 41.15093 3.77734 20191 ft 325 kts 272°
2026-05-05 16:06 41.15392 3.74771 19769 ft 323 kts 272°
2026-05-05 16:06 41.15688 3.71847 19420 ft 318 kts 272°
2026-05-05 16:07 41.15979 3.68958 19026 ft 315 kts 272°
2026-05-05 16:07 41.16265 3.66128 18673 ft 312 kts 272°
2026-05-05 16:07 41.16551 3.63275 18318 ft 311 kts 272°
2026-05-05 16:07 41.16833 3.60429 17921 ft 311 kts 272°
2026-05-05 16:08 41.17113 3.57590 17551 ft 310 kts 272°
2026-05-05 16:08 41.17392 3.54762 17194 ft 309 kts 272°
2026-05-05 16:08 41.17669 3.51940 16836 ft 308 kts 272°
2026-05-05 16:08 41.17945 3.49124 16470 ft 307 kts 272°
2026-05-05 16:09 41.18221 3.46314 16129 ft 306 kts 272°
2026-05-05 16:09 41.18497 3.43516 15768 ft 306 kts 272°
2026-05-05 16:09 41.18773 3.40723 15409 ft 305 kts 272°
2026-05-05 16:09 41.19048 3.37936 15058 ft 304 kts 272°
2026-05-05 16:10 41.19320 3.35159 14703 ft 303 kts 272°
2026-05-05 16:10 41.19589 3.32382 14350 ft 303 kts 272°
2026-05-05 16:10 41.19854 3.29617 14001 ft 302 kts 272°
2026-05-05 16:10 41.20120 3.26857 13642 ft 301 kts 272°
2026-05-05 16:11 41.20385 3.24099 13269 ft 300 kts 272°
2026-05-05 16:11 41.21170 3.15898 12217 ft 297 kts 273°
2026-05-05 16:12 41.21419 3.13182 11872 ft 296 kts 272°
2026-05-05 16:12 41.21898 3.07781 11186 ft 294 kts 273°
2026-05-05 16:13 41.22603 2.99735 10170 ft 291 kts 272°
2026-05-05 16:13 41.22837 2.97080 9913 ft 286 kts 273°
2026-05-05 16:13 41.23067 2.94503 9887 ft 279 kts 272°
2026-05-05 16:14 41.23513 2.89389 9895 ft 278 kts 272°
2026-05-05 16:14 41.23953 2.84286 9896 ft 278 kts 272°
2026-05-05 16:15 41.24397 2.79173 9893 ft 279 kts 272°
2026-05-05 16:15 41.24834 2.74031 9159 ft 280 kts 273°
2026-05-05 16:16 41.25265 2.68979 8899 ft 274 kts 273°
2026-05-05 16:16 41.25427 2.63988 8711 ft 270 kts 264°
2026-05-05 16:17 41.25271 2.58978 8527 ft 270 kts 264°
2026-05-05 16:17 41.25196 2.56491 8431 ft 269 kts 264°
2026-05-05 16:18 41.25048 2.51526 8238 ft 269 kts 265°
2026-05-05 16:18 41.25213 2.49087 8113 ft 272 kts 283°
2026-05-05 16:18 41.27138 2.45739 7903 ft 285 kts 327°
2026-05-05 16:19 41.29697 2.44944 7744 ft 295 kts
2026-05-05 16:19 41.31637 2.45796 7614 ft 298 kts 33°
2026-05-05 16:19 41.34633 2.49597 7376 ft 298 kts 46°
2026-05-05 16:20 41.37043 2.52921 7156 ft 297 kts 49°
2026-05-05 16:20 41.39437 2.57401 6383 ft 300 kts 39°
2026-05-05 16:21 41.43171 2.58950 5426 ft 282 kts 352°
2026-05-05 16:22 41.47506 2.55164 4708 ft 241 kts 294°
2026-05-05 16:22 41.48019 2.50870 4368 ft 236 kts 258°
2026-05-05 16:23 41.46577 2.47065 4143 ft 228 kts 231°
2026-05-05 16:23 41.45602 2.45397 4100 ft 228 kts 232°
2026-05-05 16:23 41.43663 2.42056 4000 ft 228 kts 232°
2026-05-05 16:24 41.42696 2.40387 3951 ft 228 kts 232°
2026-05-05 16:24 41.41727 2.38717 3902 ft 228 kts 232°
2026-05-05 16:24 41.39783 2.35377 3787 ft 228 kts 232°
2026-05-05 16:25 41.38813 2.33712 3729 ft 227 kts 232°
2026-05-05 16:25 41.37256 2.30038 3280 ft 231 kts 245°
2026-05-05 16:25 41.36598 2.28073 2916 ft 233 kts 245°
2026-05-05 16:26 41.35279 2.24181 2282 ft 228 kts 245°
2026-05-05 16:26 41.34006 2.20439 1678 ft 215 kts 244°
2026-05-05 16:27 41.33406 2.18677 1402 ft 202 kts 245°
2026-05-05 16:27 41.32856 2.17062 1137 ft 182 kts 236°
2026-05-05 16:27 41.32356 2.15613 955 ft 163 kts 232°
2026-05-05 16:27 41.31912 2.14242 808 ft 159 kts 245°
2026-05-05 16:28 41.31448 2.12943 527 ft 152 kts 243°
2026-05-05 16:28 41.31023 2.11687 314 ft 147 kts 244°
2026-05-05 16:28 41.30606 2.10474 91 ft 145 kts 244°
2026-05-05 16:28 41.30194 2.09262 19 ft 139 kts 244°
2026-05-05 16:29 41.29850 2.08281 24 ft 92 kts 245°
2026-05-05 16:29 41.29697 2.07930 16 ft 24 kts 219°
2026-05-05 16:29 41.29610 2.07844 16 ft 9 kts 216°
2026-05-05 16:29 41.29594 2.07828 16 ft 3 kts 215°
2026-05-05 16:30 41.29570 2.07818 16 ft 4 kts 189°
2026-05-05 16:30 41.29538 2.07810 16 ft 5 kts 193°
2026-05-05 16:30 41.29503 2.07805 17 ft 5 kts 179°
2026-05-05 16:30 41.29458 2.07822 18 ft 8 kts 156°
2026-05-05 16:31 41.29403 2.07854 16 ft 9 kts 156°
2026-05-05 16:31 41.29347 2.07889 17 ft 8 kts 155°
2026-05-05 16:31 41.29298 2.07919 20 ft 8 kts 155°
2026-05-05 16:31 41.29254 2.07941 19 ft 6 kts 175°
2026-05-05 16:32 41.29225 2.07902 19 ft 7 kts 242°
2026-05-05 16:32 41.29204 2.07845 19 ft 4 kts 245°
2026-05-05 16:32 41.29188 2.07820 19 ft 3 kts 199°
2026-05-05 16:32 41.29160 2.07820 19 ft 5 kts 171°
2026-05-05 16:33 41.29133 2.07835 20 ft 1 kts 157°
2026-05-05 16:33 41.29119 2.07843 19 ft 3 kts 156°
2026-05-05 16:33 41.29119 2.07844 19 ft 0 kts 156°